• In Czech Republic
  • List of Countries
  • For 7 days
  • Water Temperature
  • Satellite Maps
  • Weather Map
  • Weather Widgets
  • user-avatar
    Login

    Hourly Weather Schilde

    Today, 23 February, Friday

    Time Temperature Precipitation Wind Pressure Humidity
    00:00 -3°C° 0 mm 4 mps 766 mmHg 68%
    01:00 -3°C° 0 mm 4 mps 766 mmHg 69%
    02:00 -3°C° 0 mm 4 mps 766 mmHg 70%
    03:00 -3°C° 0 mm 4 mps 766 mmHg 72%
    04:00 -3°C° 0 mm 4 mps 766 mmHg 73%
    05:00 -3°C° 0 mm 4 mps 766 mmHg 75%
    06:00 -3°C° 0 mm 4 mps 766 mmHg 77%
    07:00 -4°C° 0 mm 5 mps 766 mmHg 73%
    08:00 -2°C° 0 mm 5 mps 766 mmHg 68%
    09:00 -2°C° 0 mm 6 mps 765 mmHg 64%
    10:00 -1°C° 0 mm 6 mps 765 mmHg 58%
    11:00 +1°C° 0 mm 6 mps 765 mmHg 52%
    12:00 0°C° 0 mm 7 mps 765 mmHg 46%
    13:00 0°C° 0 mm 7 mps 764 mmHg 44%
    14:00 +2°C° 0 mm 7 mps 764 mmHg 41%
    15:00 +2°C° 0 mm 7 mps 764 mmHg 39%
    16:00 -1°C° 0 mm 6 mps 764 mmHg 41%
    17:00 -2°C° 0 mm 6 mps 764 mmHg 43%
    18:00 -3°C° 0 mm 6 mps 764 mmHg 44%
    19:00 -3°C° 0 mm 6 mps 764 mmHg 43%
    20:00 -4°C° 0 mm 6 mps 765 mmHg 42%
    21:00 -4°C° 0 mm 6 mps 765 mmHg 41%
    22:00 -4°C° 0 mm 6 mps 765 mmHg 40%
    23:00 -4°C° 0 mm 6 mps 765 mmHg 40%

    Tomorrow, 24 February, Saturday

    Time Temperature Precipitation Wind Pressure Humidity
    00:00 -5°C° 0 mm 6 mps 765 mmHg 39%
    01:00 -5°C° 0 mm 6 mps 765 mmHg 39%
    02:00 -5°C° 0 mm 6 mps 765 mmHg 38%
    03:00 -5°C° 0 mm 6 mps 765 mmHg 38%
    04:00 -5°C° 0 mm 6 mps 765 mmHg 37%
    05:00 -5°C° 0 mm 6 mps 765 mmHg 36%
    06:00 -5°C° 0 mm 6 mps 765 mmHg 34%
    07:00 -4°C° 0 mm 7 mps 766 mmHg 32%
    08:00 -3°C° 0 mm 7 mps 766 mmHg 30%
    09:00 -2°C° 0 mm 8 mps 766 mmHg 27%
    10:00 -1°C° 0 mm 8 mps 766 mmHg 28%
    11:00 0°C° 0 mm 8 mps 766 mmHg 29%
    12:00 +1°C° 0 mm 8 mps 766 mmHg 30%
    13:00 +2°C° 0 mm 8 mps 766 mmHg 33%
    14:00 +2°C° 0 mm 8 mps 765 mmHg 37%
    15:00 +2°C° 0 mm 8 mps 765 mmHg 41%
    16:00 0°C° 0 mm 8 mps 766 mmHg 44%
    17:00 -1°C° 0 mm 8 mps 766 mmHg 47%
    18:00 -2°C° 0 mm 7 mps 766 mmHg 50%
    19:00 -3°C° 0 mm 7 mps 767 mmHg 48%
    20:00 -3°C° 0 mm 7 mps 767 mmHg 47%
    21:00 -4°C° 0 mm 7 mps 767 mmHg 45%
    22:00 -4°C° 0 mm 7 mps 768 mmHg 46%
    23:00 -4°C° 0 mm 6 mps 768 mmHg 48%

    Day after tomorrow, 25 February, Sunday

    Time Temperature Precipitation Wind Pressure Humidity
    00:00 -5°C° 0 mm 6 mps 768 mmHg 49%
    01:00 -5°C° 0 mm 6 mps 768 mmHg 48%
    02:00 -5°C° 0 mm 6 mps 768 mmHg 46%
    03:00 -5°C° 0 mm 6 mps 768 mmHg 45%
    04:00 -5°C° 0 mm 6 mps 768 mmHg 42%
    05:00 -6°C° 0 mm 6 mps 769 mmHg 40%
    06:00 -6°C° 0 mm 6 mps 769 mmHg 38%
    07:00 -6°C° 0 mm 7 mps 769 mmHg 34%
    08:00 -6°C° 0 mm 7 mps 769 mmHg 31%
    09:00 -4°C° 0 mm 7 mps 770 mmHg 27%
    10:00 -3°C° 0 mm 7 mps 770 mmHg 25%
    11:00 -2°C° 0 mm 7 mps 770 mmHg 23%
    12:00 -1°C° 0 mm 7 mps 770 mmHg 22%
    13:00 -1°C° 0 mm 7 mps 769 mmHg 23%
    14:00 -1°C° 0 mm 7 mps 769 mmHg 24%
    15:00 -1°C° 0 mm 7 mps 769 mmHg 25%
    16:00 -2°C° 0 mm 6 mps 769 mmHg 29%
    17:00 -3°C° 0 mm 6 mps 770 mmHg 32%
    18:00 -4°C° 0 mm 5 mps 770 mmHg 36%
    19:00 -5°C° 0 mm 5 mps 770 mmHg 38%
    20:00 -5°C° 0 mm 5 mps 771 mmHg 40%
    21:00 -5°C° 0 mm 5 mps 771 mmHg 42%
    22:00 -5°C° 0 mm 5 mps 771 mmHg 44%
    23:00 -5°C° 0 mm 5 mps 771 mmHg 45%

    26 February, Monday

    Time Temperature Precipitation Wind Pressure Humidity
    00:00 -5°C° 0 mm 4 mps 771 mmHg 47%
    01:00 -5°C° 0 mm 4 mps 771 mmHg 49%
    02:00 -5°C° 0 mm 4 mps 771 mmHg 52%
    03:00 -5°C° 0 mm 4 mps 771 mmHg 54%
    04:00 -5°C° 0 mm 4 mps 771 mmHg 57%
    05:00 -6°C° 0 mm 5 mps 771 mmHg 59%
    06:00 -6°C° 0 mm 5 mps 771 mmHg 62%
    07:00 -6°C° 0 mm 5 mps 771 mmHg 59%
    08:00 -5°C° 0 mm 6 mps 770 mmHg 55%
    09:00 -5°C° 0 mm 6 mps 770 mmHg 52%
    10:00 -4°C° 0 mm 6 mps 770 mmHg 47%
    11:00 -4°C° 0 mm 6 mps 770 mmHg 42%
    12:00 -3°C° 0 mm 6 mps 770 mmHg 38%
    13:00 -3°C° 0 mm 6 mps 769 mmHg 37%
    14:00 -3°C° 0 mm 6 mps 769 mmHg 37%
    15:00 -3°C° 0 mm 6 mps 768 mmHg 36%
    16:00 -4°C° 0 mm 6 mps 768 mmHg 39%
    17:00 -5°C° 0 mm 5 mps 768 mmHg 42%
    18:00 -5°C° 0 mm 4 mps 768 mmHg 45%
    19:00 -5°C° 0 mm 4 mps 768 mmHg 46%
    20:00 -5°C° 0 mm 4 mps 768 mmHg 48%
    21:00 -5°C° 0 mm 4 mps 768 mmHg 50%
    22:00 -5°C° 0 mm 4 mps 768 mmHg 52%
    23:00 -7°C° 0 mm 4 mps 768 mmHg 55%

    27 February, Tuesday

    Time Temperature Precipitation Wind Pressure Humidity
    00:00 -7°C° 0 mm 4 mps 768 mmHg 57%
    01:00 -7°C° 0 mm 4 mps 767 mmHg 58%
    02:00 -7°C° 0 mm 4 mps 767 mmHg 59%
    03:00 -7°C° 0 mm 4 mps 767 mmHg 61%
    04:00 -7°C° 0 mm 4 mps 767 mmHg 59%
    05:00 -7°C° 0 mm 3 mps 766 mmHg 57%
    06:00 -7°C° 0 mm 3 mps 766 mmHg 56%
    07:00 -6°C° 0 mm 3 mps 766 mmHg 54%
    08:00 -5°C° 0 mm 4 mps 766 mmHg 52%
    09:00 -5°C° 0 mm 4 mps 766 mmHg 50%
    10:00 -4°C° 0 mm 4 mps 766 mmHg 45%
    11:00 -3°C° 0 mm 4 mps 765 mmHg 41%
    12:00 -4°C° 0 mm 5 mps 765 mmHg 37%
    13:00 -4°C° 0 mm 5 mps 765 mmHg 34%
    14:00 -4°C° 0 mm 5 mps 764 mmHg 32%
    15:00 -2°C° 0 mm 5 mps 764 mmHg 29%
    16:00 -3°C° 0 mm 4 mps 764 mmHg 31%
    17:00 -4°C° 0 mm 3 mps 764 mmHg 33%
    18:00 -5°C° 0 mm 3 mps 764 mmHg 35%
    19:00 -4°C° 0 mm 2 mps 765 mmHg 35%
    20:00 -5°C° 0 mm 2 mps 765 mmHg 36%
    21:00 -5°C° 0 mm 2 mps 765 mmHg 36%
    22:00 -5°C° 0 mm 2 mps 765 mmHg 36%
    23:00 -5°C° 0 mm 2 mps 765 mmHg 37%

    28 February, Wednesday

    Time Temperature Precipitation Wind Pressure Humidity
    00:00 -3°C° 0 mm 1 mps 765 mmHg 37%
    01:00 -3°C° 0 mm 1 mps 765 mmHg 37%
    02:00 -4°C° 0 mm 1 mps 764 mmHg 37%
    03:00 -4°C° 0 mm 1 mps 764 mmHg 37%
    04:00 -4°C° 0 mm 1 mps 764 mmHg 37%
    05:00 -4°C° 0 mm 1 mps 764 mmHg 38%
    06:00 -4°C° 0 mm 1 mps 765 mmHg 38%
    07:00 -6°C° 0 mm 2 mps 765 mmHg 35%
    08:00 -6°C° 0 mm 3 mps 765 mmHg 33%
    09:00 -5°C° 0 mm 3 mps 765 mmHg 31%
    10:00 -4°C° 0 mm 4 mps 764 mmHg 28%
    11:00 -4°C° 0 mm 4 mps 764 mmHg 26%
    12:00 -4°C° 0 mm 5 mps 764 mmHg 24%
    13:00 -4°C° 0 mm 5 mps 764 mmHg 22%
    14:00 -4°C° 0 mm 5 mps 763 mmHg 21%
    15:00 -4°C° 0 mm 5 mps 763 mmHg 20%
    16:00 -5°C° 0 mm 5 mps 763 mmHg 22%
    17:00 -6°C° 0 mm 5 mps 763 mmHg 25%
    18:00 -7°C° 0 mm 4 mps 763 mmHg 28%
    19:00 -7°C° 0 mm 5 mps 763 mmHg 29%
    20:00 -8°C° 0 mm 5 mps 763 mmHg 31%
    21:00 -8°C° 0 mm 5 mps 763 mmHg 32%
    22:00 -8°C° 0 mm 5 mps 763 mmHg 32%
    23:00 -9°C° 0 mm 6 mps 763 mmHg 33%
    Show more